Anderson, SC

10:00 PM EDT on September 21, 2017 (GMT -0400)
Anderson Regional

Weather History for KAND - April, 2014

Change the Weather History Date:

Thursday, April 10, 2014

  Actual Average Record
Temperature  
Mean Temperature 55 °F -  
Max Temperature 73 °F 70 °F 89 °F (2001)
Min Temperature 37 °F 44 °F 29 °F (1985)
Degree Days  
Heating Degree Days 10    
Growing Degree Days 5 (Base 50)    
Moisture  
Dew Point 38 °F    
Average Humidity 53    
Maximum Humidity 97    
Minimum Humidity 24    
Precipitation  
Precipitation 0.00 in - - ()
Sea Level Pressure  
Sea Level Pressure 30.20 in    
Wind  
Wind Speed 3 mph (SW)    
Max Wind Speed 15 mph    
Max Gust Speed 21 mph    
Visibility 10 miles    
Events      
Averages and records for this station are not official NWS values.
T = Trace of Precipitation, MM = Missing Value Source: NWS Daily Summary

Daily Weather History Graph

Daily Weather History Graph

Search for Another Location

Airport or City:

Trip Planner

Search our weather history database for the weather conditions in past years. The results will help you decide how hot, cold, wet, or windy it might be!

Date:

Astronomy

Apr. 10, 2014 Rise Set
Actual Time 7:05 AM EDT 7:58 PM EDT
Civil Twilight 6:40 AM EDT 8:24 PM EDT
Nautical Twilight 6:09 AM EDT 8:54 PM EDT
Astronomical Twilight 5:38 AM EDT 9:26 PM EDT
Moon 3:51 PM EDT (4/10) 4:16 AM EDT (4/10)
Length of Visible Light 13h 44m
Length of Day
12h 53m
Waxing Gibbous, 79% of the Moon is Illuminated
Apr 10
Waxing Gibbous
Apr 15
Full
Apr 22
Last Quarter
Apr 29
New
May 6
First Quarter

Hourly Weather History & Observations

Time (EDT) Temp. Dew Point Humidity Pressure Visibility Wind Dir Wind Speed Gust Speed Precip Events Conditions
12:56 AM 46.0 °F 39.0 °F 76% 30.14 in 10.0 mi Calm Calm - N/A   Clear
1:56 AM 44.1 °F 39.0 °F 82% 30.15 in 10.0 mi Calm Calm - N/A   Clear
2:56 AM 42.1 °F 37.9 °F 85% 30.15 in 10.0 mi Calm Calm - N/A   Clear
3:56 AM 42.1 °F 37.9 °F 85% 30.17 in 10.0 mi Calm Calm - N/A   Clear
4:56 AM 39.9 °F 37.0 °F 89% 30.17 in 10.0 mi Calm Calm - N/A   Clear
5:56 AM 39.0 °F 37.0 °F 93% 30.20 in 10.0 mi Calm Calm - N/A   Clear
6:56 AM 37.9 °F 37.0 °F 97% 30.23 in 10.0 mi Calm Calm - N/A   Clear
8:56 AM 52.0 °F 44.1 °F 74% 30.27 in 10.0 mi Calm Calm - N/A   Clear
9:04 AM 53.1 °F 43.0 °F 69% 30.27 in 10.0 mi Calm Calm - N/A   Partly Cloudy
9:56 AM 59.0 °F 41.0 °F 51% 30.26 in 10.0 mi Calm Calm - N/A   Clear
10:56 AM 64.0 °F 39.0 °F 40% 30.27 in 10.0 mi South 6.9 mph - N/A   Clear
11:56 AM 68.0 °F 34.0 °F 28% 30.26 in 10.0 mi West 11.5 mph - N/A   Clear
12:56 PM 69.1 °F 36.0 °F 30% 30.24 in 10.0 mi SSW 8.1 mph - N/A   Clear
1:56 PM 71.1 °F 36.0 °F 28% 30.22 in 10.0 mi SW 15.0 mph 20.7 mph N/A   Clear
2:56 PM 72.0 °F 35.1 °F 26% 30.20 in 10.0 mi WSW 12.7 mph 19.6 mph N/A   Clear
3:56 PM 73.0 °F 34.0 °F 24% 30.17 in 10.0 mi West 11.5 mph - N/A   Clear
4:56 PM 73.0 °F 35.1 °F 25% 30.16 in 10.0 mi SW 10.4 mph - N/A   Clear
5:56 PM 73.0 °F 35.1 °F 25% 30.16 in 10.0 mi WSW 9.2 mph - N/A   Clear
6:56 PM 72.0 °F 35.1 °F 26% 30.16 in 10.0 mi SW 9.2 mph - N/A   Clear
7:56 PM 66.9 °F 37.0 °F 33% 30.17 in 10.0 mi SSW 5.8 mph - N/A   Clear
8:56 PM 60.1 °F 39.9 °F 47% 30.17 in 10.0 mi Calm Calm - N/A   Clear
9:56 PM 61.0 °F 39.0 °F 44% 30.19 in 10.0 mi Calm Calm - N/A   Clear
10:56 PM 57.0 °F 39.0 °F 51% 30.19 in 10.0 mi South 3.5 mph - N/A   Clear
11:56 PM 55.9 °F 39.9 °F 55% 30.20 in 10.0 mi SSW 5.8 mph - N/A   Clear